Flag for U.S.A. Weather past 2 weeks in Moreno Valley, California, U.S.A.

Now
59 °F

Clear.


Feels Like: 59 °F
Forecast: 57 / 80 °F
Wind: 6 mph from South

Location: Riverside / March Air Force Base

Current Time: Sep 4, 2015 at 3:24:36 AM

Latest Report: Sep 4, 2015 at 2:58 AM


Visibility: 10 mi

Pressure: 29.85 "Hg

Humidity: 95%

Dew point: 58 °F

Location of Moreno ValleyLocation

Historic Weather in Moreno Valley — Graph

°F

Moreno Valley temperature yesterday

Maximum temperature yesterday: 83 °F (at 3:58 PM)
Minimum temperature yesterday: 58 °F (at 5:58 AM)
Average temperature yesterday: 68 °F

Past Weeks' High & Low Weather Summary

 TemperatureHumidityPressure
High103 °F (Aug 28, 2:58 PM)100% (Aug 20, 4:02 AM)29.99 "Hg (Aug 20, 4:02 AM)
Low58 °F (Sep 3, 5:58 AM)16% (Aug 28, 3:58 PM)29.79 "Hg (Sep 3, 4:58 PM)
Average77 °F57%29.89 "Hg
* Reported Aug 20 1:58 AM — Sep 4 1:58 AM, Moreno Valley, Weather by CustomWeather, © 2015

Note: Actual official high and low records may vary slightly from our data, if they occured in-between our weather recording intervals... More about our weather records

Advertising

Moreno Valley weather history for previous 24 hours

 ConditionsComfort  
Time TempWeatherWind HumidityBarometerVisibility
1:58 AM
Fri, Sep 4
61 °FClear.5 mph87%29.85 "Hg10 mi
12:58 AM62 °FClear.5 mph83%29.86 "Hg10 mi
11:58 PM
Thu, Sep 3
62 °FClear.6 mph81%29.86 "Hg10 mi
10:58 PM63 °FClear.3 mph78%29.86 "Hg10 mi
9:58 PM65 °FClear.5 mph73%29.87 "Hg10 mi
8:58 PM67 °FClear.No wind68%29.85 "Hg10 mi
7:58 PM70 °FSunny.5 mph63%29.82 "Hg10 mi
6:58 PM75 °FSunny.10 mph53%29.79 "Hg10 mi
5:58 PM81 °FSunny.9 mph43%29.79 "Hg10 mi
4:58 PM83 °FSunny.5 mph39%29.79 "Hg10 mi
3:58 PM83 °FSunny.8 mph42%29.80 "Hg10 mi
2:58 PM82 °FSunny.9 mph43%29.83 "Hg10 mi
1:58 PM81 °FSunny.7 mph42%29.85 "Hg10 mi
12:58 PM77 °FSunny.6 mph46%29.87 "Hg10 mi
11:58 AM74 °FSunny.2 mph54%29.90 "Hg10 mi
10:58 AM68 °FSunny.2 mph72%29.92 "Hg10 mi
9:58 AM64 °FOvercast.1 mph86%29.94 "Hg10 mi
8:58 AM62 °FLow clouds.2 mph96%29.93 "Hg8 mi
7:58 AM62 °FFog.2 mph100%29.92 "Hg2 mi
6:58 AM60 °FFog.5 mph100%29.90 "Hg5 mi
5:58 AM58 °FClear.3 mph100%29.89 "Hg10 mi
4:58 AM58 °FClear.No wind98%29.88 "Hg10 mi
3:58 AM60 °FClear.No wind94%29.89 "Hg10 mi
Weather by CustomWeather, © 2015

See weather overviewHow to use our weather pages